Powrót do katalogu

ARIANE 2 DEB

LostGTO
NORAD 33553·DEBRIS·🇫🇷 France

Wystrzelony Jan 27, 1989 z Guiana Space Centre

Loading…

TLE

NieaktualneSource: Space-Track

Epoka: Jan 23, 2009, 02:56 UTC

1 33553U 89006AV  09023.12227312 -.00010429  00000-0 -88916-1 0  9997
2 33553 008.8742 034.7486 7178557 258.1614 020.5595 02.26397810 17427

Śledź ARIANE 2 DEB w czasie rzeczywistym z AllMySat

Download on the App Store